Tracking 31027 objects as of 19-Jul-2025
HD Live streaming from Space Station
objects crossing your sky now

TITAN 3C TRANSTAGE DEB

Track TITAN 3C TRANSTAGE DEB now!


NORAD ID: 26777
Int'l Code: 1965-108AV
Perigee: 1,111.1 km
Apogee: 31,217.5 km
Inclination: 27.3 °
Period: 561.1 minutes
Semi major axis: 22535 km
RCS: 0.1056 m2 (medium)
Launch date: December 21, 1965
Source: United States (US)
Launch site: AIR FORCE EASTERN TEST RANGE (AFETR)

Note: This is SATELLITE DEBRIS
Your satellite tracking list
STARLINK-31009
Track 1 satellite(s)




NASA's NSSDC Master Catalog

Two Line Element Set (TLE):
1 26777U 65108AV  25187.38609287 -.00000016  00000-0  00000+0 0  9992
2 26777  27.2826 316.9172 6679829 235.0831  57.7540  2.56630484238634
Source of the keplerian elements: AFSPC